If you wish to contribute or participate in the discussions about articles you are invited to join SKYbrary as a registered user

 Actions

Ahvaz International Airport

From SKYbrary Wiki

OIAW
Airport
ICAO: OIAW – IATA: AWZ
Summary
Name Ahvaz International Airport
Region Middle East
Territory Iran IR.gif
Location Ahvaz, Khuzestan
Serving Ahvas
Elevation 20.117 m <br />66 ft20.117 m <br />
Coordinates 31° 20' 15.00" N, 48° 45' 37.00" E
Runways
Designator Length Width Surface ROPS
12/30 3398 m11,148.294 ft <br /> 45 m147.638 ft <br /> ASP yes/yes


METAR
Observation OIAW 230700Z 01008KT 8000 NSC 43/08 Q1001
Station Ahwaz
Date/Time 23 June 2021 07:00:00
Wind direction 10°
Wind speed 08 kts
Lowest cloud amount nil significant cloud
Temperature 43°C
Dew point 8°C
Humidity 12%
QNH 1001 hPa
Weather condition n/a

Ahvaz (or Ahwaz) airport serves the city of Ahvaz, west Iran.

Climatology

Hot Desert Climate (Köppen climate classification BWh)

Maps

Terrain

Loading map...

Airport Layout

Loading map...


Accidents & Serious Incidents at or in vicinity of OIAW

None on SKYbrary